N0ZMJ-4 Weather Reports


Display with metric or nautical units.
time (UTC)temp
F
wind
direction
speed
MPH
gust
MPH
rain 1hr
in
rain 24hr
in
rain mn
in
humidity
%
barometer
mb
20260901103502 60 245 0.0 0.0 0.00 0.00 0.00 100 1013.3
20260901103003 60 245 0.0 0.0 0.00 0.00 0.00 100 1013.2
20260901102502 60 245 0.0 0.0 0.00 0.00 0.00 100 1013.2
20260901102003 60 245 0.0 0.0 0.00 0.00 0.00 100 1013.1
20260901101503 60 245 0.0 0.0 0.00 0.00 0.00 100 1013.1
20260901101003 60 245 0.0 0.0 0.00 0.00 0.00 100 1013.1
20260901100503 60 245 0.0 0.0 0.00 0.00 0.00 100 1013.2
20260901100003 60 245 0.0 1.0 0.00 0.00 0.00 100 1013.1
20260901095503 60 244 0.0 2.0 0.00 0.00 0.00 100 1013.0
20260901095002 61 245 0.0 4.0 0.00 0.00 0.00 100 1012.9
20260901094503 61 198 1.0 4.0 0.00 0.00 0.00 100 1012.9
20260901094002 61 360 0.0 0.0 0.00 0.00 0.00 100 1012.8
20260901093503 61 360 0.0 0.0 0.00 0.00 0.00 100 1012.7
20260901093003 61 360 0.0 0.0 0.00 0.00 0.00 100 1012.7
20260901092503 61 360 0.0 0.0 0.00 0.00 0.00 100 1012.5
20260901092003 61 360 0.0 0.0 0.00 0.00 0.00 100 1012.6
20260901091503 62 360 0.0 0.0 0.00 0.00 0.00 100 1012.7
20260901091003 62 360 0.0 0.0 0.00 0.00 0.00 100 1012.7
20260901090503 62 360 0.0 0.0 0.00 0.00 0.00 100 1012.6
20260901090003 62 360 0.0 0.0 0.00 0.00 0.00 100 1012.6
20260901085503 62 360 0.0 0.0 0.00 0.00 0.00 100 1012.7
20260901085003 62 360 0.0 0.0 0.00 0.00 0.00 100 1012.5
20260901084502 62 360 0.0 0.0 0.00 0.00 0.00 100 1012.6
20260901084003 62 360 0.0 0.0 0.00 0.00 0.00 100 1012.6
20260901083502 62 360 0.0 0.0 0.00 0.00 0.00 100 1012.6
20260901083003 62 360 0.0 0.0 0.00 0.00 0.00 100 1012.5
20260901082502 62 360 0.0 0.0 0.00 0.00 0.00 100 1012.5
20260901082003 62 360 0.0 0.0 0.00 0.00 0.00 100 1012.6
20260901081502 62 360 0.0 0.0 0.00 0.00 0.00 100 1012.8
20260901081003 62 360 0.0 0.0 0.00 0.00 0.00 100 1012.7
20260901080502 62 360 0.0 0.0 0.00 0.00 0.00 100 1012.9
20260901080003 63 360 0.0 2.0 0.00 0.00 0.00 100 1012.7
20260901075503 63 360 0.0 2.0 0.00 0.00 0.00 100 1012.8
20260901075003 63 320 0.0 0.0 0.00 0.00 0.00 100 1012.9
20260901074503 63 320 0.0 0.0 0.00 0.00 0.00 100 1012.9
20260901074003 63 320 0.0 0.0 0.00 0.00 0.00 100 1012.9
20260901073503 63 320 0.0 0.0 0.00 0.00 0.00 100 1012.8
20260901073003 63 320 0.0 0.0 0.00 0.00 0.00 100 1012.8
20260901072503 63 320 0.0 0.0 0.00 0.00 0.00 100 1012.8
20260901072003 63 320 0.0 0.0 0.00 0.00 0.00 100 1012.9
20260901071503 63 320 0.0 3.0 0.00 0.00 0.00 100 1012.9
20260901071002 64 320 0.0 3.0 0.00 0.00 0.00 100 1012.9
20260901070503 64 319 0.0 1.0 0.00 0.00 0.00 100 1013.0
20260901070002 64 320 0.0 0.0 0.00 0.00 0.00 100 1013.1
20260901065503 64 320 0.0 0.0 0.00 0.00 0.00 100 1013.2
20260901065002 64 320 0.0 0.0 0.00 0.00 0.00 100 1013.3
20260901064503 65 320 0.0 0.0 0.00 0.00 0.00 100 1013.2
20260901064003 65 320 0.0 0.0 0.00 0.00 0.00 100 1013.3
20260901063503 65 320 0.0 0.0 0.00 0.00 0.00 100 1013.3
20260901063002 65 320 0.0 0.0 0.00 0.00 0.00 100 1013.5
20260901062503 65 320 0.0 0.0 0.00 0.00 0.00 100 1013.4
20260901062003 65 320 0.0 0.0 0.00 0.00 0.00 100 1013.4
20260901061503 66 320 0.0 0.0 0.00 0.00 0.00 100 1013.4
20260901061003 66 320 0.0 0.0 0.00 0.00 0.00 100 1013.4
20260901060503 66 320 0.0 0.0 0.00 0.00 0.00 100 1013.5
20260901060002 66 320 0.0 0.0 0.00 0.00 0.00 100 1013.6
20260901055503 66 320 0.0 0.0 0.00 0.00 0.00 100 1013.7
20260901055003 66 320 0.0 0.0 0.00 0.00 0.00 100 1013.7
20260901054504 66 320 0.0 0.0 0.00 0.00 0.00 100 1013.7
20260901054003 66 320 0.0 0.0 0.00 0.00 0.00 100 1013.6
20260901053502 66 320 0.0 0.0 0.00 0.00 0.00 100 1013.7
20260901053003 66 320 0.0 0.0 0.00 0.00 0.00 100 1013.8
20260901052502 66 320 0.0 0.0 0.00 0.00 0.00 100 1013.7
20260901052004 66 320 0.0 0.0 0.00 0.00 0.00 100 1013.7
20260901051502 66 320 0.0 1.0 0.00 0.00 0.00 100 1013.7
20260901051003 66 320 0.0 1.0 0.00 0.00 0.00 100 1013.7
20260901050502 66 320 0.0 0.0 0.00 0.00 0.00 100 1013.6
20260901050003 66 320 0.0 0.0 0.00 0.00 0.00 100 1013.7
20260901045503 66 320 0.0 0.0 0.00 0.00 0.00 100 1013.5
20260901045003 66 320 0.0 1.0 0.00 0.00 0.00 100 1013.4
20260901044505 66 320 0.0 1.0 0.00 0.00 0.00 100 1013.3
20260901044003 67 320 0.0 0.0 0.00 0.00 0.00 100 1013.4
20260901043503 67 320 0.0 0.0 0.00 0.00 0.00 100 1013.2
20260901043003 67 320 0.0 0.0 0.00 0.00 0.00 100 1013.2
20260901042503 67 320 0.0 0.0 0.00 0.00 0.00 100 1013.2
20260901042003 68 320 0.0 0.0 0.00 0.00 0.00 100 1013.2
20260901041503 68 320 0.0 0.0 0.00 0.00 0.00 100 1013.1
20260901041003 68 320 0.0 0.0 0.00 0.00 0.00 99 1013.1
20260901040503 68 320 0.0 0.0 0.00 0.00 0.00 99 1013.1
20260901040002 68 320 0.0 0.0 0.00 0.00 0.00 98 1013.0
20260901035503 69 320 0.0 0.0 0.00 0.00 0.00 98 1013.0
20260901035003 69 320 0.0 0.0 0.00 0.00 0.00 98 1013.0
20260901034503 69 320 0.0 1.0 0.00 0.00 0.00 97 1012.9
20260901034003 69 319 0.0 1.0 0.00 0.00 0.00 97 1013.1
20260901033503 69 320 0.0 0.0 0.00 0.00 0.00 97 1013.1
20260901033003 69 320 0.0 0.0 0.00 0.00 0.00 96 1013.1
20260901032503 69 320 0.0 0.0 0.00 0.00 0.00 96 1012.9
20260901032002 69 320 0.0 0.0 0.00 0.00 0.00 96 1012.9
20260901031504 69 320 0.0 0.0 0.00 0.00 0.00 96 1012.9
20260901031003 70 320 0.0 0.0 0.00 0.00 0.00 95 1012.8
20260901030503 70 320 0.0 0.0 0.00 0.00 0.00 95 1012.9
20260901030003 70 320 0.0 0.0 0.00 0.00 0.00 94 1012.8
20260901025503 70 320 0.0 0.0 0.00 0.00 0.00 94 1012.7
20260901025003 70 320 0.0 0.0 0.00 0.00 0.00 93 1012.7
20260901024503 70 320 0.0 0.0 0.00 0.00 0.00 93 1012.7
20260901024003 70 320 0.0 0.0 0.00 0.00 0.00 92 1012.7
20260901023503 71 320 0.0 0.0 0.00 0.00 0.00 91 1012.7
20260901023003 71 320 0.0 0.0 0.00 0.00 0.00 90 1012.6
20260901022502 71 320 0.0 0.0 0.00 0.00 0.00 89 1012.7
20260901022003 71 320 0.0 1.0 0.00 0.00 0.00 88 1012.5
20260901021502 71 319 0.0 1.0 0.00 0.00 0.00 88 1012.5
20260901021003 72 320 0.0 0.0 0.00 0.00 0.00 88 1012.6
20260901020503 72 320 0.0 2.0 0.00 0.00 0.00 86 1012.5
20260901020003 72 320 0.0 2.0 0.00 0.00 0.00 86 1012.4
20260901015502 72 319 0.0 2.0 0.00 0.00 0.00 86 1012.4
20260901015003 72 320 0.0 0.0 0.00 0.00 0.00 85 1012.2
20260901014502 73 320 0.0 0.0 0.00 0.00 0.00 85 1012.1
20260901014003 73 320 0.0 0.0 0.00 0.00 0.00 84 1012.0
20260901013503 73 320 0.0 0.0 0.00 0.00 0.00 84 1012.0
20260901013003 74 320 0.0 0.0 0.00 0.00 0.00 83 1011.9
20260901012503 74 320 0.0 0.0 0.00 0.00 0.00 82 1012.0
20260901012003 74 320 0.0 0.0 0.00 0.00 0.00 81 1012.1
20260901011503 75 320 0.0 0.0 0.00 0.00 0.00 81 1012.0
20260901011004 75 320 0.0 0.0 0.00 0.00 0.00 79 1012.0
20260901010503 75 320 0.0 0.0 0.00 0.00 0.00 78 1012.1
20260901010003 75 320 0.0 0.0 0.00 0.00 0.00 78 1012.1
20260901005503 76 320 0.0 0.0 0.00 0.00 0.00 77 1012.1
20260901005003 76 320 0.0 0.0 0.00 0.00 0.00 76 1012.1
20260901004503 76 320 0.0 0.0 0.00 0.00 0.00 75 1012.0
20260901004002 77 320 0.0 0.0 0.00 0.00 0.00 74 1012.0
20260901003503 77 320 0.0 0.0 0.00 0.00 0.00 72 1012.0
20260901003002 77 320 0.0 0.0 0.00 0.00 0.00 71 1012.1
20260901002503 78 320 0.0 0.0 0.00 0.00 0.00 71 1012.0
20260901002002 78 320 0.0 0.0 0.00 0.00 0.00 70 1011.9
20260901001503 78 320 0.0 0.0 0.00 0.00 0.00 70 1011.9
20260901001003 79 320 0.0 0.0 0.00 0.00 0.00 69 1011.9
20260901000503 79 320 0.0 2.0 0.00 0.00 0.00 68 1011.9
20260901000003 79 320 0.0 2.0 0.00 0.00 0.00 67 1011.9
20260831235502 79 319 0.0 2.0 0.00 0.00 0.00 68 1011.9
20260831235003 79 319 0.0 2.0 0.00 0.00 0.00 66 1012.0
20260831234502 79 320 0.0 1.0 0.00 0.00 0.00 64 1011.9
20260831234003 80 319 0.0 2.0 0.00 0.00 0.00 67 1012.1
20260831233502 80 319 0.0 2.0 0.00 0.00 0.00 66 1012.0
20260831233003 80 319 0.0 1.0 0.00 0.00 0.00 68 1012.1
20260831232502 79 319 0.0 1.0 0.00 0.00 0.00 66 1012.1
20260831232003 80 319 0.0 1.0 0.00 0.00 0.00 66 1012.0
20260831231503 80 320 0.0 2.0 0.00 0.00 0.00 65 1012.0
20260831231003 80 319 0.0 3.0 0.00 0.00 0.00 65 1012.1
20260831230503 80 319 0.0 3.0 0.00 0.00 0.00 64 1012.2
20260831230003 80 323 0.0 3.0 0.00 0.00 0.00 63 1012.1
20260831225503 80 323 0.0 3.0 0.00 0.00 0.00 63 1012.2
20260831225003 80 320 1.0 3.0 0.00 0.00 0.00 64 1012.3
20260831224502 80 316 0.0 2.0 0.00 0.00 0.00 65 1012.2
20260831224003 80 301 0.0 3.0 0.00 0.00 0.00 64 1012.1
20260831223503 80 292 0.0 3.0 0.00 0.00 0.00 64 1012.2
20260831223003 80 276 1.0 2.0 0.00 0.00 0.00 66 1012.2
20260831222503 80 304 0.0 2.0 0.00 0.00 0.00 65 1012.2
20260831222002 80 304 0.0 2.0 0.00 0.00 0.00 65 1012.2
20260831221503 80 292 0.0 2.0 0.00 0.00 0.00 66 1012.3
20260831221002 80 276 1.0 3.0 0.00 0.00 0.00 64 1012.1
20260831220503 81 193 2.0 3.0 0.00 0.00 0.00 66 1012.1
20260831220002 81 328 0.0 2.0 0.00 0.00 0.00 66 1012.2
20260831215503 81 327 0.0 3.0 0.00 0.00 0.00 66 1012.2
20260831215002 81 232 0.0 3.0 0.00 0.00 0.00 66 1012.2
20260831214503 81 229 2.0 5.0 0.00 0.00 0.00 65 1012.1
20260831214002 81 229 1.0 5.0 0.00 0.00 0.00 65 1012.1
20260831213503 81 246 0.0 4.0 0.00 0.00 0.00 63 1012.2
20260831213002 81 246 1.0 4.0 0.00 0.00 0.00 65 1012.1
20260831212503 82 247 0.0 4.0 0.00 0.00 0.00 64 1012.2
20260831212003 82 240 0.0 7.0 0.00 0.00 0.00 63 1012.3
20260831211503 81 227 2.0 7.0 0.00 0.00 0.00 63 1012.4
20260831211003 81 222 2.0 6.0 0.00 0.00 0.00 65 1012.4
20260831210503 81 226 1.0 4.0 0.00 0.00 0.00 67 1012.4
20260831210002 81 219 2.0 6.0 0.00 0.00 0.00 66 1012.4
20260831205503 80 300 2.0 6.0 0.00 0.00 0.00 67 1012.5
20260831205003 80 1 0.0 3.0 0.00 0.00 0.00 67 1012.5
20260831204503 80 233 1.0 3.0 0.00 0.00 0.00 66 1012.7
20260831204003 80 221 0.0 3.0 0.00 0.00 0.00 66 1012.6
20260831203502 80 190 0.0 3.0 0.00 0.00 0.00 64 1012.5
20260831203003 80 251 0.0 4.0 0.00 0.00 0.00 64 1012.6
20260831202502 80 255 2.0 4.0 0.00 0.00 0.00 65 1012.6
20260831202003 80 335 1.0 4.0 0.00 0.00 0.00 64 1012.5
20260831201503 80 330 1.0 5.0 0.00 0.00 0.00 65 1012.4
20260831201003 80 334 0.0 5.0 0.00 0.00 0.00 65 1012.4
20260831200502 80 313 1.0 3.0 0.00 0.00 0.00 64 1012.5
20260831200003 80 5 1.0 3.0 0.00 0.00 0.00 63 1012.5
20260831195503 80 315 1.0 3.0 0.00 0.00 0.00 65 1012.4
20260831195003 80 183 2.0 3.0 0.00 0.00 0.00 66 1012.3
20260831194503 80 221 1.0 3.0 0.00 0.00 0.00 65 1012.3
20260831194003 80 5 1.0 3.0 0.00 0.00 0.00 65 1012.3
20260831193503 80 335 1.0 5.0 0.00 0.00 0.00 66 1012.3
20260831193003 80 252 1.0 5.0 0.00 0.00 0.00 65 1012.5
20260831192503 80 266 1.0 4.0 0.00 0.00 0.00 63 1012.5
20260831192002 80 237 2.0 4.0 0.00 0.00 0.00 63 1012.4
20260831191503 80 270 1.0 4.0 0.00 0.00 0.00 63 1012.5
20260831191002 80 304 1.0 5.0 0.00 0.00 0.00 62 1012.6
20260831190503 80 223 2.0 5.0 0.00 0.00 0.00 60 1012.6
20260831190003 80 241 2.0 6.0 0.00 0.00 0.00 60 1012.5
20260831185503 80 273 1.0 6.0 0.00 0.00 0.00 66 1012.5
20260831185002 80 263 2.0 6.0 0.00 0.00 0.00 65 1012.4
20260831184503 80 236 1.0 5.0 0.00 0.00 0.00 66 1012.5
20260831184003 80 342 1.0 5.0 0.00 0.00 0.00 63 1012.4
20260831183503 80 234 1.0 4.0 0.00 0.00 0.00 64 1012.5
20260831183003 80 10 2.0 4.0 0.00 0.00 0.00 64 1012.4
20260831182503 80 359 1.0 4.0 0.00 0.00 0.00 64 1012.3
20260831182003 80 279 1.0 3.0 0.00 0.00 0.00 67 1012.3
20260831181503 79 299 1.0 3.0 0.00 0.00 0.00 64 1012.3
20260831181003 79 334 0.0 3.0 0.00 0.00 0.00 64 1012.4
20260831180502 79 336 1.0 3.0 0.00 0.00 0.00 65 1012.3
20260831180003 79 29 1.0 4.0 0.00 0.00 0.00 66 1012.3
20260831175503 79 29 1.0 4.0 0.00 0.00 0.00 67 1012.2
20260831175003 78 35 1.0 4.0 0.00 0.00 0.00 70 1012.3
20260831174503 78 36 1.0 4.0 0.00 0.00 0.00 70 1012.3
20260831174003 78 33 1.0 3.0 0.00 0.00 0.00 73 1012.5
20260831173503 77 3 0.0 2.0 0.00 0.00 0.00 73 1012.5
20260831173003 77 3 1.0 4.0 0.00 0.00 0.00 74 1012.5
20260831172503 77 343 2.0 4.0 0.00 0.00 0.00 75 1012.5
20260831172003 77 250 1.0 4.0 0.00 0.00 0.00 78 1012.6
20260831171503 76 324 1.0 4.0 0.00 0.00 0.00 78 1012.6
20260831171002 76 14 1.0 4.0 0.00 0.00 0.00 78 1012.6
20260831170504 76 360 1.0 4.0 0.00 0.00 0.00 79 1012.6
20260831170002 76 360 1.0 4.0 0.00 0.00 0.00 79 1012.6
20260831165503 76 314 1.0 4.0 0.00 0.00 0.00 79 1012.6
20260831165003 75 347 1.0 5.0 0.00 0.00 0.00 82 1012.7
20260831164503 75 223 0.0 5.0 0.00 0.00 0.00 83 1012.7
20260831164003 75 360 1.0 3.0 0.00 0.00 0.00 82 1012.5
20260831163503 75 21 0.0 3.0 0.00 0.00 0.00 84 1012.6
20260831163003 75 21 1.0 3.0 0.00 0.00 0.00 84 1012.6
20260831162503 74 15 1.0 4.0 0.00 0.00 0.00 84 1012.7
20260831162003 74 333 1.0 4.0 0.00 0.00 0.00 85 1012.7
20260831161503 74 0 1.0 3.0 0.00 0.00 0.00 87 1012.6
20260831161003 73 360 1.0 3.0 0.00 0.00 0.00 87 1012.6
20260831160502 73 360 1.0 4.0 0.00 0.00 0.00 87 1012.7
20260831160003 73 360 0.0 4.0 0.00 0.00 0.00 88 1012.7
20260831155502 73 9 1.0 5.0 0.00 0.00 0.00 88 1012.6
20260831155003 72 358 2.0 5.0 0.00 0.00 0.00 88 1012.5
20260831154502 72 331 1.0 4.0 0.00 0.00 0.00 89 1012.5
20260831154003 72 58 1.0 5.0 0.00 0.00 0.00 89 1012.4
20260831153503 72 17 2.0 5.0 0.00 0.00 0.00 90 1012.4
20260831153003 72 357 2.0 5.0 0.00 0.00 0.00 90 1012.4
20260831152503 71 333 1.0 4.0 0.00 0.00 0.00 92 1012.4
20260831152003 71 343 1.0 4.0 0.00 0.00 0.00 93 1012.3
20260831151503 70 340 2.0 4.0 0.00 0.00 0.00 94 1012.3
20260831151003 70 353 2.0 5.0 0.00 0.00 0.00 93 1012.2
20260831150503 70 328 2.0 5.0 0.00 0.00 0.00 94 1012.2
20260831150003 70 323 1.0 4.0 0.00 0.00 0.00 94 1012.2
20260831145503 70 338 1.0 4.0 0.00 0.00 0.00 95 1012.1
20260831145002 70 340 2.0 4.0 0.00 0.00 0.00 96 1012.2
20260831144503 70 258 2.0 5.0 0.00 0.00 0.00 96 1012.3
20260831144002 70 284 1.0 5.0 0.00 0.00 0.00 96 1012.3
20260831143503 70 322 2.0 6.0 0.00 0.00 0.00 97 1012.1
20260831143002 70 275 1.0 6.0 0.00 0.00 0.00 98 1012.1
20260831142503 70 254 1.0 5.0 0.00 0.00 0.00 98 1012.1
20260831142002 69 318 1.0 5.0 0.00 0.00 0.00 99 1012.3
20260831141503 69 305 1.0 4.0 0.00 0.00 0.00 99 1012.1
20260831141003 69 259 1.0 4.0 0.00 0.00 0.00 100 1011.8
20260831140503 69 258 1.0 4.0 0.00 0.00 0.00 100 1011.9
20260831140003 69 346 1.0 4.0 0.00 0.00 0.00 100 1011.8
20260831135503 69 360 0.0 3.0 0.00 0.00 0.00 100 1011.7
20260831135002 68 1 1.0 3.0 0.00 0.00 0.00 100 1011.8
20260831134503 68 296 0.0 5.0 0.00 0.00 0.00 100 1011.6
20260831134003 68 291 0.0 5.0 0.00 0.00 0.00 100 1011.6
20260831133503 68 210 1.0 4.0 0.00 0.00 0.00 100 1011.5
20260831133003 68 266 0.0 5.0 0.00 0.00 0.00 100 1011.3
20260831132503 67 339 0.0 5.0 0.00 0.00 0.00 100 1011.2
20260831132003 67 285 1.0 5.0 0.00 0.00 0.00 100 1011.1
20260831131502 67 278 0.0 4.0 0.00 0.00 0.00 100 1011.1
20260831131004 67 310 1.0 6.0 0.00 0.00 0.00 100 1010.9
20260831130502 66 310 1.0 6.0 0.00 0.00 0.00 100 1010.9
20260831130003 66 302 0.0 7.0 0.00 0.00 0.00 100 1011.0
20260831125502 66 218 0.0 7.0 0.00 0.00 0.00 100 1011.0
20260831125003 66 205 1.0 4.0 0.00 0.00 0.00 100 1010.9
20260831124503 66 267 1.0 4.0 0.00 0.00 0.00 100 1010.8
20260831124003 66 250 1.0 4.0 0.00 0.00 0.00 100 1010.5
20260831123503 66 170 0.0 1.0 0.00 0.00 0.00 100 1010.6
20260831123003 65 170 0.0 0.0 0.00 0.00 0.00 100 1010.5
20260831122503 65 170 0.0 0.0 0.00 0.00 0.00 100 1010.1
20260831122003 66 170 0.0 0.0 0.00 0.00 0.00 100 1010.1
20260831121503 66 170 0.0 1.0 0.00 0.00 0.00 100 1010.1
20260831121003 66 170 0.0 1.0 0.00 0.00 0.00 100 1010.0
20260831120503 66 170 0.0 1.0 0.00 0.00 0.00 100 1009.9
20260831120002 66 170 0.0 0.0 0.00 0.00 0.00 100 1009.8
20260831115503 66 170 0.0 0.0 0.00 0.00 0.00 100 1010.0
20260831115002 66 170 0.0 0.0 0.00 0.00 0.00 100 1009.9
20260831114503 67 170 0.0 0.0 0.00 0.00 0.00 100 1009.8
20260831114002 67 170 0.0 0.0 0.00 0.00 0.00 100 1009.8
20260831113503 67 170 0.0 0.0 0.00 0.00 0.00 100 1009.8
20260831113003 67 170 0.0 1.0 0.00 0.00 0.00 100 1009.7
20260831112503 67 170 0.0 1.0 0.00 0.00 0.00 100 1009.5
20260831112003 67 170 0.0 0.0 0.00 0.00 0.00 100 1009.5
20260831111503 68 170 0.0 1.0 0.00 0.00 0.00 100 1009.7
20260831111003 68 170 0.0 1.0 0.00 0.00 0.00 100 1009.4
20260831110502 68 170 0.0 0.0 0.00 0.00 0.00 100 1009.5
20260831110003 68 170 0.0 0.0 0.00 0.00 0.00 100 1009.2
20260831105502 68 170 0.0 1.0 0.00 0.00 0.00 100 1009.1
20260831105003 68 170 0.0 1.0 0.00 0.00 0.00 100 1008.9
20260831104503 68 170 0.0 1.0 0.00 0.00 0.00 100 1008.8
20260831104003 69 170 0.0 0.0 0.00 0.00 0.00 100 1008.8